Regional Weather Roundup
Issued by NWS Little Rock, AR

Home | Current Version | Previous Version | Text Only | Print | Product List | Glossary On
Versions: 1 2 3 4 5 6 7 8 9 10 11 12 13 14 15 16 17 18 19 20 21 22 23 24 25 26 27 28 29 30 31 32
000
ASUS44 KLZK 201212
RWRLZK

WEATHER ROUNDUP FOR ARKANSAS
NATIONAL WEATHER SERVICE LITTLE ROCK AR
700 AM CDT SUN AUG 20 2017

NOTE: "FAIR" INDICATES FEW OR NO CLOUDS BELOW 12,000 FEET WITH NO
SIGNIFICANT WEATHER AND/OR OBSTRUCTIONS TO VISIBILITY.

ARZ001-003-010-029-201300-
NORTHWEST ARKANSAS

CITY           SKY/WX    TMP DP  RH WIND       PRES   REMARKS
FAYETTEVILLE   CLEAR     70  70 100 CALM      30.03R
6HR MIN TEMP:  70; 6HR MAX TEMP:  72;

FORT SMITH     CLEAR     77  75  93 NE6       29.98S
6HR MIN TEMP:  76; 6HR MAX TEMP:  81;

HARRISON       PTCLDY    74  73  97 CALM      30.04R
6HR MIN TEMP:  73; 6HR MAX TEMP:  78;

BENTONVILLE    CLEAR     73  70  88 CALM      30.03R
6HR MIN TEMP:  73; 6HR MAX TEMP:  79;

ROGERS         CLEAR     73  72  96 CALM      30.04
6HR MIN TEMP:  73; 6HR MAX TEMP:  77;

HIGHFILL       CLEAR     73  72  96 S3        30.02R
6HR MIN TEMP:  71; 6HR MAX TEMP:  77;

SPRINGDALE     CLEAR     73  73 100 CALM      30.04S
$$

ARZ004-005-016-201300-
NORTH CENTRAL ARKANSAS

CITY           SKY/WX    TMP DP  RH WIND       PRES   REMARKS
BATESVILLE     PTCLDY    73  72  94 CALM      30.01R
6HR MIN TEMP:  72; 6HR MAX TEMP:  73; 6HR PCP:  0.01;

FLIPPIN        PTCLDY    75  68  78 SW6       29.98S
6HR MIN TEMP:  73; 6HR MAX TEMP:  79;

MTN HOME       PTCLDY    74  73  97 CALM      30.01R
6HR MIN TEMP:  73; 6HR MAX TEMP:  77;

$$

ARZ040-041-201300-
WEST CENTRAL ARKANSAS

CITY           SKY/WX    TMP DP  RH WIND       PRES   REMARKS
MENA           CLEAR     75  73  94 CALM      30.04R
MOUNT IDA      FOG       74  72  93 CALM      30.01R VSB 1
6HR MIN TEMP:  74; 6HR MAX TEMP:  78;

$$

ARZ009-017-025-026-028-201300-
NORTHEAST ARKANSAS

CITY           SKY/WX    TMP DP  RH WIND       PRES   REMARKS
CORNING        FAIR      73  73 100 CALM      30.01S
JONESBORO      CLEAR     74  74 100 CALM      30.01R
6HR MIN TEMP:  72; 6HR MAX TEMP:  77;

NEWPORT        CLEAR     73  73 100 E3        30.01R FOG
6HR MIN TEMP:  72; 6HR MAX TEMP:  76;

WALNUT RIDGE   CLEAR     73  70  88 SE5       30.00S
6HR MIN TEMP:  73; 6HR MAX TEMP:  75;

BLYTHEVILLE    PTCLDY    76  74  93 SE3       30.02R
6HR MIN TEMP:  71; 6HR MAX TEMP:  76;

$$

ARZ022-023-033-042-044-201300-
CENTRAL ARKANSAS

CITY           SKY/WX    TMP DP  RH WIND       PRES   REMARKS
LITTLE ROCK    PTCLDY    76  76 100 SW3       30.00R
6HR MIN TEMP:  76; 6HR MAX TEMP:  80;

N LITTLE ROCK    N/A     77  75  93 SE5       30.00R
6HR MIN TEMP:  77; 6HR MAX TEMP:  81;

JACKSONVILLE   PTCLDY    75  75 100 CALM      30.00R
6HR MIN TEMP:  74; 6HR MAX TEMP:  78;

CONWAY           N/A     75  75 100 CALM      29.98R FOG
SEARCY         PTCLDY    73  73 100 CALM      30.02R FOG
6HR MIN TEMP:  72; 6HR MAX TEMP:  75;

HOT SPRINGS    CLEAR     77  76  96 CALM      30.02R
6HR MIN TEMP:  76; 6HR MAX TEMP:  81;

RUSSELLVILLE   CLEAR     75  75 100 CALM      29.99S FOG
6HR MIN TEMP:  74; 6HR MAX TEMP:  78;

CLINTON        FAIR      72  72 100 CALM      30.01S
$$

ARZ036-201300-
EAST ARKANSAS

CITY           SKY/WX    TMP DP  RH WIND       PRES   REMARKS
WEST MEMPHIS   CLEAR     75  75 100 SE5       30.00R FOG
6HR MIN TEMP:  75; 6HR MAX TEMP:  79; 6HR PCP: TRACE;

$$

ARZ050-053-066-070-073-201300-
SOUTHWEST ARKANSAS

CITY           SKY/WX    TMP DP  RH WIND       PRES   REMARKS
ARKADELPHIA    FOG       73  73 100 CALM      30.02R VSB 1
6HR MIN TEMP:  74; 6HR MAX TEMP:  79;

CAMDEN         PTCLDY    75  72  88 CALM      30.01R FOG
TEXARKANA      CLEAR     77  76  96 CALM      30.01R
6HR MIN TEMP:  76; 6HR MAX TEMP:  81;

EL DORADO      CLEAR     74  73  97 CALM      30.02R
6HR MIN TEMP:  74; 6HR MAX TEMP:  79;

DE QUEEN       FOG       74  74 100 CALM      29.99R VSB 3/4
6HR MIN TEMP:  74; 6HR MAX TEMP:  78;

$$

ARZ056-057-069-201300-
SOUTHEAST ARKANSAS

CITY           SKY/WX    TMP DP  RH WIND       PRES   REMARKS
PINE BLUFF     CLEAR     76  73  91 S3        30.01R
6HR MIN TEMP:  76; 6HR MAX TEMP:  80;

MONTICELLO     CLEAR     76  73  91 NW3       30.02R
6HR MIN TEMP:  76; 6HR MAX TEMP:  80;


$$






USA.gov is the U.S. government's official web portal to all federal, state and local government web resources and services.